DateTimeUTC,F1_A11,F1_S11,BsB_S11,BsG_S11,BsR_S11,BbsB_S11,BbsG_S11,BbsR_S11,BaB_A11,BaG_A11,BaR_A11,Tu_S11,T_S11,Uu_S11,U_S11,P_S11,T1_A11
2021-06-09T04:00:00Z,00000200,20000000,,,,,,,0000.16,0000.53,-000.18,16.9,23.8,06.7,04.4,0668.2,30.9
2021-06-09T04:01:00Z,00000200,20000000,,,,,,,0000.09,-000.05,0000.36,16.9,23.8,06.7,04.4,0668.2,30.9
2021-06-09T04:02:00Z,00000200,20000000,,,,,,,0000.02,0000.29,-000.04,16.9,23.8,06.7,04.4,0668.1,30.9
2021-06-09T04:03:00Z,00000200,60000000,,,,,,,0000.53,0000.02,0000.12,16.9,23.8,06.7,04.4,0668.1,30.9
2021-06-09T04:04:00Z,00000200,40000000,0001.18,0000.41,0000.36,0000.45,-000.09,-000.13,0000.11,0000.74,0000.31,17.0,23.6,07.0,04.7,0669.0,30.9
2021-06-09T04:05:00Z,00000200,00000000,0001.27,0000.48,0000.15,0000.14,-000.01,0000.04,0000.30,-000.39,0000.29,17.0,23.5,07.0,04.7,0669.1,30.9
2021-06-09T04:06:00Z,00000200,00000000,0001.29,0000.30,0000.44,-000.04,0000.08,0000.18,0000.31,0000.47,-000.22,17.0,23.5,07.0,04.7,0669.1,30.9
2021-06-09T04:07:00Z,00000200,00000000,0000.72,0000.15,0000.54,0000.59,0000.05,0000.10,0000.36,0000.20,0000.15,17.0,23.5,07.1,04.8,0669.1,30.9
2021-06-09T04:08:00Z,00000200,00000000,0001.32,0000.26,0000.24,-000.12,0000.11,0000.18,-000.02,0000.23,0000.60,17.0,23.5,07.1,04.8,0669.1,30.9
2021-06-09T04:09:00Z,00000200,00000000,0000.58,0000.27,0000.52,0000.00,0000.04,0000.09,0000.27,0000.33,0000.23,17.1,23.5,07.1,04.8,0669.1,30.9
2021-06-09T04:10:00Z,00000200,00000000,0001.63,0000.38,0000.07,0000.21,0000.03,0000.10,0000.17,0000.06,0000.07,17.1,23.6,07.2,04.8,0669.1,30.9
2021-06-09T04:11:00Z,00000200,00000000,0001.17,0000.06,0000.25,0000.10,0000.05,0000.12,0000.14,0000.12,0000.22,17.1,23.5,07.1,04.8,0669.1,30.9
2021-06-09T04:12:00Z,00000200,00000000,0000.43,0000.34,0000.41,0000.01,-000.03,-000.05,0000.19,0000.22,-000.12,17.1,23.5,07.1,04.8,0669.1,30.9
2021-06-09T04:13:00Z,00000200,00000000,0000.51,0000.20,0000.23,0000.12,-000.15,0000.15,0000.30,0000.61,0000.10,17.1,23.6,07.2,04.8,0669.1,30.9
2021-06-09T04:14:00Z,00000200,00000000,0000.81,0000.28,0000.24,-000.39,0000.09,-000.20,0000.09,-000.30,0000.20,17.2,23.5,07.3,04.9,0669.1,30.9
2021-06-09T04:15:00Z,00000200,00000000,0000.29,0000.34,0000.19,0000.40,0000.09,0000.15,0000.18,0000.57,0000.26,17.2,23.5,07.2,04.9,0669.1,30.9
2021-06-09T04:16:00Z,00000200,00000000,0000.28,0000.19,0000.31,0000.21,0000.07,0000.33,0000.36,-000.04,-000.04,17.2,23.6,07.2,04.9,0669.1,30.9
2021-06-09T04:17:00Z,00000200,00000000,0000.66,0000.38,0000.39,0000.39,0000.15,0000.10,-000.20,-000.17,0000.19,17.2,23.5,07.3,04.9,0669.0,30.9
2021-06-09T04:18:00Z,00000200,00000000,-000.18,0000.24,0000.27,0000.16,-000.04,0000.02,0000.73,0000.06,-000.05,17.2,23.6,07.2,04.9,0669.1,30.9
2021-06-09T04:19:00Z,00000200,00000000,0000.81,0000.13,0000.37,0000.25,0000.14,0000.35,-000.33,0000.48,0000.24,17.2,23.6,07.4,05.0,0669.0,30.9
2021-06-09T04:20:00Z,00000200,00000000,0000.70,0000.25,-000.08,-000.16,0000.19,0000.10,0000.41,0000.25,0000.06,17.2,23.5,07.4,05.0,0669.0,30.9
2021-06-09T04:21:00Z,00000200,00000000,0000.90,0000.26,0000.11,-000.34,0000.12,0000.20,0000.44,0000.09,0000.18,17.1,23.5,07.4,05.0,0669.0,30.9
2021-06-09T04:22:00Z,00000200,00000000,0000.68,0000.40,0000.25,0000.13,0000.35,0000.13,-000.23,-000.05,-000.24,17.1,23.5,07.4,05.0,0669.0,30.9
2021-06-09T04:23:00Z,00000200,00000000,0001.27,0000.21,0000.06,-000.37,-000.20,-000.04,0000.26,0000.27,0000.29,17.1,23.5,07.5,05.0,0669.0,30.9
2021-06-09T04:24:00Z,00000200,00000000,0000.63,0000.23,0000.08,0000.49,0000.02,0000.22,0000.13,0000.19,0000.06,17.1,23.5,07.5,05.0,0669.0,30.9
2021-06-09T04:25:00Z,00000200,00000000,0000.86,0000.52,-000.02,-000.04,-000.18,0000.27,0000.03,0000.19,0000.15,17.1,23.5,07.5,05.0,0669.1,30.9
2021-06-09T04:26:00Z,00000200,00000000,0000.76,0000.46,0000.05,0000.30,0000.04,-000.11,0000.39,0000.10,0000.20,17.1,23.5,07.6,05.1,0669.1,30.9
2021-06-09T04:27:00Z,00000200,00000000,0000.44,0000.33,0000.04,0000.17,-000.18,-000.09,0000.19,0000.17,0000.11,17.1,23.5,07.5,05.1,0669.1,30.9
2021-06-09T04:28:00Z,00000200,00000000,0000.93,0000.14,0000.01,-000.18,0000.34,-000.08,0000.14,0000.24,0000.09,17.1,23.5,07.5,05.0,0669.1,30.9
2021-06-09T04:29:00Z,00000200,00000000,0000.28,0000.39,0000.20,-000.47,-000.03,0000.13,0000.57,0000.32,0000.44,17.1,23.5,07.5,05.1,0669.1,30.9
2021-06-09T04:30:00Z,00000200,00000000,0000.92,0000.38,0000.01,-000.28,0000.20,0000.19,-000.10,0000.28,0000.13,17.1,23.5,07.6,05.1,0669.1,30.9
2021-06-09T04:31:00Z,00000200,00000000,0000.61,0000.11,0000.12,-000.06,-000.16,0000.10,-000.13,0000.30,-000.05,17.1,23.5,07.7,05.2,0669.1,30.9
2021-06-09T04:32:00Z,00000200,00000000,0000.64,0000.57,0000.24,-000.56,-000.09,0000.35,0000.66,0000.12,0000.53,17.1,23.5,07.6,05.1,0669.1,30.9
2021-06-09T04:33:00Z,00000200,00000000,0000.91,0000.37,0000.05,-000.36,-000.03,0000.16,0000.03,0000.15,-000.11,17.1,23.5,07.7,05.2,0669.0,30.9
2021-06-09T04:34:00Z,00000200,00000000,0000.79,0000.43,0000.24,0000.28,0000.32,0000.17,0000.26,-000.26,-000.10,17.1,23.5,07.7,05.2,0669.1,30.9
2021-06-09T04:35:00Z,00000200,00000000,0000.99,0000.34,-000.03,0000.29,-000.02,0000.08,0000.01,0000.65,0000.47,17.1,23.5,07.7,05.2,0669.0,30.9
2021-06-09T04:36:00Z,00000200,00000000,0000.55,0000.68,-000.00,0000.03,-000.23,-000.01,0000.41,-000.20,-000.20,17.1,23.5,07.6,05.1,0669.0,30.9
2021-06-09T04:37:00Z,00000200,00000000,0001.04,0000.15,0000.19,-000.02,0000.02,-000.09,-000.01,0000.56,0000.79,17.1,23.5,07.7,05.2,0669.0,30.9
2021-06-09T04:38:00Z,00000200,00000000,0001.01,0000.42,0000.11,0000.41,0000.14,0000.06,-000.14,-000.55,-000.29,17.1,23.5,07.7,05.2,0669.0,30.9
2021-06-09T04:39:00Z,00000200,00000000,0000.53,0000.05,0000.26,0000.01,0000.04,0000.16,0000.22,0000.16,0000.05,17.1,23.4,07.8,05.2,0668.9,30.9
2021-06-09T04:40:00Z,00000200,00000000,0001.51,0000.22,0000.01,0000.61,-000.18,0000.05,0000.28,0000.13,0000.02,17.1,23.4,07.6,05.1,0669.0,30.9
2021-06-09T04:41:00Z,00000200,00000000,0000.84,0000.23,0000.14,-000.05,-000.23,-000.05,0000.22,0000.34,0000.41,17.1,23.4,07.6,05.1,0668.9,30.9
2021-06-09T04:42:00Z,00000200,00000000,0000.74,0000.00,0000.07,-000.31,0000.01,0000.06,0000.11,0000.44,-000.31,17.1,23.4,07.7,05.2,0668.9,30.9
2021-06-09T04:43:00Z,00000200,00000000,0001.11,0000.15,0000.07,-000.26,-000.02,0000.05,-000.06,-000.32,0000.01,17.0,23.4,07.7,05.2,0669.0,30.9
2021-06-09T04:44:00Z,00000200,00000000,0000.80,0000.60,0000.27,0000.45,0000.08,0000.15,0000.44,0000.05,0000.52,17.1,23.4,07.7,05.2,0668.9,30.9
2021-06-09T04:45:00Z,00000200,00000000,0000.67,0000.40,-000.06,-000.04,0000.21,0000.06,0000.01,0000.29,-000.25,17.1,23.4,07.7,05.2,0669.0,30.9
2021-06-09T04:46:00Z,00000200,00000000,0000.77,0000.37,0000.15,0000.69,-000.16,-000.09,0000.31,0000.67,0000.55,17.0,23.4,07.7,05.2,0669.0,30.9
2021-06-09T04:47:00Z,00000200,00000000,0000.86,0000.74,0000.41,-000.17,0000.07,-000.07,0000.23,0000.19,-000.10,17.0,23.4,07.8,05.3,0669.0,30.9
2021-06-09T04:48:00Z,00000200,00000000,0001.03,0000.37,0000.06,0000.27,-000.03,0000.24,0000.22,0000.18,0000.31,17.0,23.4,07.8,05.3,0669.0,30.9
2021-06-09T04:49:00Z,00000200,00000000,0001.60,0000.30,0000.36,0000.12,-000.01,0000.26,0000.27,-000.08,0000.56,17.0,23.4,07.8,05.3,0669.0,30.9
2021-06-09T04:50:00Z,00000200,00000000,0001.00,0000.51,0000.20,0000.46,0000.19,-000.10,0000.29,0000.30,-000.36,17.0,23.4,07.7,05.2,0669.0,30.9
2021-06-09T04:51:00Z,00000200,00000000,0000.61,0000.46,0000.26,0000.17,0000.02,0000.07,0000.06,-000.03,0000.36,17.0,23.4,07.9,05.3,0669.0,30.9
2021-06-09T04:52:00Z,00000200,00000000,0000.75,0000.50,0000.37,0000.20,0000.00,0000.11,0000.21,-000.05,0000.20,17.0,23.4,07.9,05.4,0669.0,30.9
2021-06-09T04:53:00Z,00000200,00000000,0001.03,0000.61,0000.30,0000.23,0000.32,0000.09,0000.64,0000.66,0000.23,17.0,23.4,07.8,05.3,0669.0,30.9
2021-06-09T04:54:00Z,00000200,00000000,0001.11,0000.32,0000.31,0000.52,-000.07,0000.07,0000.15,0000.57,0000.28,17.1,23.4,07.8,05.3,0669.0,30.9
2021-06-09T04:55:00Z,00000200,00000000,0001.45,0000.56,0000.73,-000.13,0000.25,0000.33,0000.35,0000.22,0000.20,17.1,23.4,07.9,05.4,0669.0,30.9
2021-06-09T04:56:00Z,00000200,00000000,0000.86,0000.26,0000.73,-000.01,0000.01,0000.40,0000.11,0000.26,0000.31,17.1,23.5,08.0,05.4,0669.0,30.9
2021-06-09T04:57:00Z,00000200,40000000,,,,,,,-000.06,-000.61,-000.47,17.2,23.5,07.7,05.2,0668.9,30.9
2021-06-09T04:58:00Z,00000200,60000000,,,,,,,0000.25,0000.24,0000.18,17.0,23.6,08.0,05.3,0668.0,30.9
2021-06-09T04:59:00Z,00000200,20000000,,,,,,,-000.17,0000.05,-000.34,17.0,23.7,07.9,05.2,0668.0,30.9
